Weather History for KMWM - November, 2013

Change the Weather History Date:

Friday, November 29, 2013

  Actual Average (WUND) Record (WUND)
Temperature  
Mean Temperature 18 °F -  
Max Temperature 33 °F - - (-1)
Min Temperature 3 °F - - (-1)
Degree Days  
Heating Degree Days 47    
Moisture  
Dew Point 14 °F    
Average Humidity 72    
Maximum Humidity 86    
Minimum Humidity 52    
Precipitation  
Precipitation 0.00 in - - ()
Sea Level Pressure  
Sea Level Pressure 30.27 in    
Wind  
Wind Speed 7 mph (SSE)    
Max Wind Speed 21 mph    
Max Gust Speed 26 mph    
Visibility 10 miles    
Events      
Averages and records for this station are not official NWS values.
T = Trace of Precipitation, MM = Missing Value Source: NWS Daily Summary

Daily Weather History Graph

Daily Weather History Graph

Search for Another Location

Airport or City:

Trip Planner

Search our weather history database for the weather conditions in past years. The results will help you decide how hot, cold, wet, or windy it might be!

Date:

Astronomy

Nov. 29, 2013 Rise Set
Actual Time 7:32 AM CST 4:44 PM CST
Civil Twilight 7:00 AM CST 5:16 PM CST
Nautical Twilight 6:24 AM CST 5:52 PM CST
Astronomical Twilight 5:50 AM CST 6:27 PM CST
Moon 3:32 AM CST (11/29) 2:35 PM CST (11/29)
Length of Visible Light 10h 16m
Length of Day
9h 11m
Waning Crescent, 14% of the Moon is Illuminated
Nov 29
Waning Crescent
Dec 2
New
Dec 9
First Quarter
Dec 17
Full
Dec 25
Last Quarter

Hourly Weather History & Observations

Time (CST) Temp. Windchill Dew Point Humidity Pressure Visibility Wind Dir Wind Speed Gust Speed Precip Events Conditions
12:12 AM 5.0 °F - 1.4 °F 85% 30.46 in 10.0 mi Calm Calm - N/A   Unknown
12:32 AM 5.0 °F -2.1 °F 1.4 °F 85% 30.46 in 10.0 mi WSW 3.5 mph - N/A   Clear
12:53 AM 3.2 °F - -0.4 °F 85% 30.46 in 10.0 mi Calm Calm - N/A   Clear
1:12 AM 5.0 °F - -0.4 °F 78% 30.46 in 10.0 mi Calm Calm - N/A   Clear
1:32 AM 6.8 °F - 1.4 °F 79% 30.45 in 10.0 mi Calm Calm - N/A   Clear
1:53 AM 5.0 °F - 1.4 °F 85% 30.45 in 10.0 mi Calm Calm - N/A   Unknown
2:12 AM 5.0 °F - 1.4 °F 85% 30.45 in 10.0 mi Calm Calm - N/A   Clear
2:32 AM 6.8 °F - 1.4 °F 79% 30.45 in 10.0 mi Calm Calm - N/A   Unknown
2:53 AM 5.0 °F - 1.4 °F 85% 30.44 in 10.0 mi Calm Calm - N/A   Clear
3:12 AM 6.8 °F - 1.4 °F 79% 30.44 in 10.0 mi Calm Calm - N/A   Clear
3:32 AM 6.8 °F - 3.2 °F 85% 30.44 in 10.0 mi Calm Calm - N/A   Clear
3:53 AM 6.8 °F - 3.2 °F 85% 30.42 in 10.0 mi Calm Calm - N/A   Clear
4:12 AM 6.8 °F - 3.2 °F 85% 30.42 in 10.0 mi Calm Calm - N/A   Unknown
4:32 AM 8.6 °F - 3.2 °F 79% 30.42 in 10.0 mi Calm Calm - N/A   Unknown
4:52 AM 8.6 °F 0.1 °F 5.0 °F 85% 30.42 in 10.0 mi South 4.6 mph - N/A   Clear
5:12 AM 10.4 °F 2.2 °F 6.8 °F 85% 30.41 in 10.0 mi SSE 4.6 mph - N/A   Clear
5:33 AM 10.4 °F 4.0 °F 6.8 °F 85% 30.41 in 10.0 mi SSE 3.5 mph - N/A   Clear
5:52 AM 10.4 °F 2.2 °F 6.8 °F 85% 30.41 in 10.0 mi SSE 4.6 mph - N/A   Unknown
6:12 AM 12.2 °F 1.7 °F 6.8 °F 79% 30.41 in 10.0 mi SSE 6.9 mph - N/A   Unknown
6:33 AM 12.2 °F 0.7 °F 8.6 °F 85% 30.40 in 10.0 mi SSE 8.1 mph - N/A   Clear
6:52 AM 12.2 °F -0.2 °F 8.6 °F 85% 30.40 in 10.0 mi SSE 9.2 mph - N/A   Clear
7:12 AM 12.2 °F 0.7 °F 8.6 °F 85% 30.39 in 10.0 mi SSE 8.1 mph - N/A   Clear
7:33 AM 12.2 °F 1.7 °F 8.6 °F 85% 30.39 in 10.0 mi SSE 6.9 mph - N/A   Clear
7:52 AM 14.0 °F 2.0 °F 8.6 °F 79% 30.39 in 10.0 mi SSE 9.2 mph - N/A   Clear
8:13 AM 15.8 °F 4.2 °F 10.4 °F 79% 30.39 in 10.0 mi SSE 9.2 mph - N/A   Clear
8:32 AM 17.6 °F 6.4 °F 10.4 °F 73% 30.39 in 10.0 mi SSE 9.2 mph - N/A   Clear
8:52 AM 19.4 °F 6.6 °F 10.4 °F 68% 30.38 in 10.0 mi SSE 12.7 mph 16.1 mph N/A   Clear
9:13 AM 21.2 °F 9.5 °F 12.2 °F 68% 30.38 in 10.0 mi SSE 11.5 mph 18.4 mph N/A   Clear
9:32 AM 23.0 °F 11.1 °F 12.2 °F 63% 30.37 in 10.0 mi SSE 12.7 mph 18.4 mph N/A   Clear
9:52 AM 23.0 °F 10.6 °F 12.2 °F 63% 30.37 in 10.0 mi SSE 13.8 mph 19.6 mph N/A   Clear
10:13 AM 24.8 °F 12.9 °F 15.8 °F 69% 30.36 in 10.0 mi SSE 13.8 mph 17.3 mph N/A   Clear
10:32 AM 26.6 °F 14.7 °F 15.8 °F 64% 30.36 in 10.0 mi South 15.0 mph 21.9 mph N/A   Clear
10:52 AM 28.4 °F 16.6 °F 15.8 °F 59% 30.34 in 10.0 mi South 16.1 mph 21.9 mph N/A   Clear
11:13 AM 28.4 °F 17.5 °F 15.8 °F 59% 30.34 in 10.0 mi South 13.8 mph 24.2 mph N/A   Clear
11:32 AM 28.4 °F 16.6 °F 17.6 °F 64% 30.32 in 10.0 mi South 16.1 mph 20.7 mph N/A   Clear
11:52 AM 28.4 °F 15.4 °F 15.8 °F 59% 30.31 in 10.0 mi South 19.6 mph 25.3 mph N/A   Clear
12:12 PM 30.2 °F 18.5 °F 17.6 °F 60% 30.29 in 10.0 mi South 17.3 mph 25.3 mph N/A   Clear
12:32 PM 30.2 °F 17.8 °F 17.6 °F 60% 30.28 in 10.0 mi South 19.6 mph 26.5 mph N/A   Clear
12:53 PM 32.0 °F 21.6 °F 17.6 °F 55% 30.26 in 10.0 mi SSE 15.0 mph 23.0 mph N/A   Clear
1:12 PM 33.8 °F 23.9 °F 17.6 °F 52% 30.25 in 10.0 mi South 15.0 mph 20.7 mph N/A   Clear
1:32 PM 32.0 °F 22.1 °F 17.6 °F 55% 30.24 in 10.0 mi SSE 13.8 mph 21.9 mph N/A   Clear
1:53 PM 33.8 °F 23.2 °F 19.4 °F 56% 30.22 in 10.0 mi South 17.3 mph 23.0 mph N/A   Clear
2:12 PM 33.8 °F 23.5 °F 19.4 °F 56% 30.21 in 10.0 mi SSE 16.1 mph 24.2 mph N/A   Clear
2:32 PM 33.8 °F 23.9 °F 19.4 °F 56% 30.19 in 10.0 mi SSE 15.0 mph 25.3 mph N/A   Clear
2:53 PM 33.8 °F 23.5 °F 19.4 °F 56% 30.19 in 10.0 mi SSE 16.1 mph 25.3 mph N/A   Clear
3:12 PM 33.8 °F 22.2 °F 19.4 °F 56% 30.17 in 10.0 mi SSE 20.7 mph 24.2 mph N/A   Clear
3:32 PM 33.8 °F 22.5 °F 19.4 °F 56% 30.16 in 10.0 mi SSE 19.6 mph 26.5 mph N/A   Clear
3:53 PM 33.8 °F 22.5 °F 19.4 °F 56% 30.15 in 10.0 mi SSE 19.6 mph 25.3 mph N/A   Clear
4:12 PM 32.0 °F 21.6 °F 19.4 °F 60% 30.14 in 10.0 mi SE 15.0 mph 21.9 mph N/A   Clear
4:32 PM 32.0 °F 21.6 °F 19.4 °F 60% 30.14 in 10.0 mi SSE 15.0 mph 19.6 mph N/A   Clear
4:53 PM 30.2 °F 18.5 °F 19.4 °F 64% 30.13 in 10.0 mi SSE 17.3 mph - N/A   Clear
5:12 PM 30.2 °F 19.8 °F 19.4 °F 64% 30.12 in 10.0 mi SSE 13.8 mph - N/A   Clear
5:32 PM 30.2 °F 20.2 °F 21.2 °F 69% 30.13 in 10.0 mi SSE 12.7 mph - N/A   Clear
5:52 PM 32.0 °F 21.6 °F 21.2 °F 64% 30.13 in 10.0 mi SSE 15.0 mph 20.7 mph N/A   Clear
6:12 PM 30.2 °F 19.3 °F 21.2 °F 69% 30.12 in 10.0 mi SSE 15.0 mph 23.0 mph N/A   Clear
6:32 PM 30.2 °F 18.9 °F 21.2 °F 69% 30.11 in 10.0 mi SSE 16.1 mph 26.5 mph N/A   Clear
6:52 PM 30.2 °F 19.3 °F 21.2 °F 69% 30.12 in 10.0 mi SSE 15.0 mph 21.9 mph N/A   Clear
7:13 PM 30.2 °F 19.8 °F 21.2 °F 69% 30.12 in 10.0 mi South 13.8 mph 24.2 mph N/A   Clear
7:32 PM 28.4 °F 18.0 °F 21.2 °F 74% 30.12 in 10.0 mi South 12.7 mph 18.4 mph N/A   Clear
7:52 PM 28.4 °F 19.1 °F 21.2 °F 74% 30.12 in 10.0 mi South 10.4 mph 17.3 mph N/A   Clear
8:13 PM 28.4 °F 19.7 °F 21.2 °F 74% 30.12 in 10.0 mi South 9.2 mph 16.1 mph N/A   Clear
8:32 PM 28.4 °F 19.1 °F 21.2 °F 74% 30.11 in 10.0 mi South 10.4 mph - N/A   Clear
8:52 PM 28.4 °F 19.7 °F 21.2 °F 74% 30.10 in 10.0 mi South 9.2 mph - N/A   Clear
9:13 PM 30.2 °F 19.8 °F 23.0 °F 75% 30.09 in 10.0 mi South 13.8 mph - N/A   Clear
9:32 PM 30.2 °F 19.3 °F 23.0 °F 75% 30.08 in 10.0 mi South 15.0 mph - N/A   Clear
9:52 PM 30.2 °F 19.3 °F 23.0 °F 75% 30.07 in 10.0 mi South 15.0 mph - N/A   Clear
10:13 PM 30.2 °F 19.8 °F 24.8 °F 80% 30.06 in 10.0 mi South 13.8 mph 19.6 mph N/A   Clear
10:32 PM 30.2 °F 20.8 °F 24.8 °F 80% 30.07 in 10.0 mi South 11.5 mph 17.3 mph N/A   Clear
10:52 PM 30.2 °F 19.8 °F 24.8 °F 80% 30.06 in 10.0 mi South 13.8 mph 19.6 mph N/A   Clear
11:13 PM 30.2 °F 18.5 °F 24.8 °F 80% 30.06 in 10.0 mi SSW 17.3 mph 20.7 mph N/A   Clear
11:32 PM 30.2 °F 19.3 °F 24.8 °F 80% 30.06 in 10.0 mi SSW 15.0 mph - N/A   Clear
11:52 PM 28.4 °F 18.0 °F 24.8 °F 86% 30.06 in 10.0 mi SSW 12.7 mph - N/A   Clear